User: anonymous   Login
Location: ????????
(54.8751°N, 38.5756°E)
Time: 13:31:58
(UTC+00:00)
Language:

Lacrosse 4 Rocket - Orbit

View from above orbital plane
View from above orbital plane
View from above satellite
View from above satellite

Ground track
Ground track

The orbit data is extracted from the following two-line orbital elements,

1 26474U 00047B   24175.92621168  .00002961  00000-0  22869-3 0  9996
2 26474  67.9931 345.6286 0046470  14.3485 345.8967 15.02207592298970
Epoch (UTC): 23 June 2024 22:13:44
Eccentricity: 0.0046470
inclination: 67.9931°
perigee height: 528 km
apogee height: 592 km
right ascension of ascending node: 345.6286°
argument of perigee: 14.3485°
revolutions per day: 15.02207592
mean anomaly at epoch: 345.8967°
orbit number at epoch: 29897

The dashed part of the orbit path shows where the satellite is in the earth's shadow,  

DLR